Вернуться в каталог

DELTA 1 DEB

АктивенPO
NORAD 27577·DEBRIS·🇺🇸 United States

Запущен Jun 12, 1975 с Vandenberg Space Force Base

Loading…

Ближайшие Пролёты (ближайшие 24 часа)

TLE

СвежийSource: Space-Track

Эпоха: Sep 14, 2026, 13:00 UTC

1 27577U 75052LE  26257.54213662  .00000355  00000-0  62992-3 0  9992
2 27577  99.0829 115.5288 0075145 163.8699 226.0858 13.47660556549597

Отслеживайте DELTA 1 DEB в реальном времени с AllMySat

Download on the App Store